• In Moldova, Republic
  • List of Countries
  • For 7 days
  • Water Temperature
  • Satellite Maps
  • Weather Map
  • Weather Widgets
  • user-avatar
    Login

    Hourly Weather Shaki

    Today, 30 May, Tuesday

    Time Temperature Precipitation Wind Pressure Humidity
    00:00 +17°C° 0 mm 3 mps 738 mmHg 72%
    01:00 +17°C° 0 mm 2 mps 738 mmHg 73%
    02:00 +16°C° 0 mm 2 mps 738 mmHg 73%
    03:00 +16°C° 0 mm 2 mps 737 mmHg 74%
    04:00 +17°C° 0 mm 2 mps 737 mmHg 69%
    05:00 +19°C° 0 mm 1 mps 737 mmHg 64%
    06:00 +21°C° 0 mm 1 mps 737 mmHg 59%
    07:00 +22°C° 0 mm 1 mps 736 mmHg 53%
    08:00 +24°C° 0 mm 1 mps 736 mmHg 47%
    09:00 +26°C° 0 mm 2 mps 736 mmHg 41%
    10:00 +27°C° 0 mm 2 mps 735 mmHg 37%
    11:00 +29°C° 0 mm 2 mps 735 mmHg 34%
    12:00 +30°C° 0 mm 1 mps 734 mmHg 30%
    13:00 +31°C° 0 mm 2 mps 734 mmHg 29%
    14:00 +31°C° 0 mm 2 mps 734 mmHg 28%
    15:00 +31°C° 0 mm 2 mps 733 mmHg 26%
    16:00 +31°C° 0 mm 1 mps 733 mmHg 29%
    17:00 +30°C° 0 mm 1 mps 733 mmHg 32%
    18:00 +29°C° 0 mm 1 mps 733 mmHg 35%
    19:00 +26°C° 0 mm 1 mps 733 mmHg 38%
    20:00 +24°C° 0 mm 1 mps 733 mmHg 40%
    21:00 +21°C° 0 mm 1 mps 733 mmHg 43%
    22:00 +20°C° 0 mm 2 mps 733 mmHg 40%
    23:00 +20°C° 0 mm 2 mps 733 mmHg 36%

    Tomorrow, 31 May, Wednesday

    Time Temperature Precipitation Wind Pressure Humidity
    00:00 +20°C° 0 mm 2 mps 733 mmHg 33%
    01:00 +20°C° 0 mm 2 mps 733 mmHg 34%
    02:00 +19°C° 0 mm 2 mps 733 mmHg 36%
    03:00 +19°C° 0 mm 2 mps 733 mmHg 37%
    04:00 +20°C° 0 mm 2 mps 733 mmHg 38%
    05:00 +21°C° 0 mm 2 mps 733 mmHg 39%
    06:00 +23°C° 0 mm 2 mps 733 mmHg 39%
    07:00 +26°C° 0 mm 2 mps 733 mmHg 33%
    08:00 +28°C° 0 mm 2 mps 733 mmHg 26%
    09:00 +30°C° 0 mm 3 mps 733 mmHg 20%
    10:00 +31°C° 0 mm 3 mps 732 mmHg 19%
    11:00 +33°C° 0 mm 3 mps 732 mmHg 18%
    12:00 +34°C° 0 mm 3 mps 731 mmHg 16%
    13:00 +34°C° 0 mm 3 mps 731 mmHg 17%
    14:00 +34°C° 0 mm 2 mps 731 mmHg 17%
    15:00 +34°C° 0 mm 2 mps 731 mmHg 17%
    16:00 +32°C° 0.1 mm 2 mps 731 mmHg 22%
    17:00 +30°C° 0.1 mm 2 mps 731 mmHg 27%
    18:00 +29°C° 0.1 mm 2 mps 731 mmHg 31%
    19:00 +26°C° 0.1 mm 2 mps 731 mmHg 34%
    20:00 +24°C° 0.1 mm 2 mps 731 mmHg 36%
    21:00 +20°C° 0.1 mm 2 mps 731 mmHg 38%
    22:00 +19°C° 0.1 mm 2 mps 731 mmHg 42%
    23:00 +19°C° 0.1 mm 2 mps 731 mmHg 46%

    Day after tomorrow, 1 June, Thursday

    Time Temperature Precipitation Wind Pressure Humidity
    00:00 +18°C° 0.1 mm 2 mps 732 mmHg 50%
    01:00 +18°C° 0.1 mm 2 mps 732 mmHg 54%
    02:00 +17°C° 0.1 mm 2 mps 732 mmHg 58%
    03:00 +17°C° 0.1 mm 2 mps 732 mmHg 62%
    04:00 +18°C° 0.1 mm 2 mps 732 mmHg 61%
    05:00 +19°C° 0.1 mm 2 mps 732 mmHg 59%
    06:00 +20°C° 0.1 mm 2 mps 732 mmHg 57%
    07:00 +22°C° 0.1 mm 3 mps 732 mmHg 50%
    08:00 +25°C° 0.1 mm 3 mps 732 mmHg 43%
    09:00 +27°C° 0.1 mm 3 mps 732 mmHg 35%
    10:00 +28°C° 0.2 mm 3 mps 732 mmHg 32%
    11:00 +29°C° 0.2 mm 3 mps 732 mmHg 29%
    12:00 +30°C° 0.2 mm 3 mps 731 mmHg 26%
    13:00 +30°C° 0.2 mm 3 mps 731 mmHg 26%
    14:00 +30°C° 0.2 mm 2 mps 731 mmHg 25%
    15:00 +30°C° 0.2 mm 2 mps 731 mmHg 24%
    16:00 +29°C° 0.1 mm 2 mps 731 mmHg 28%
    17:00 +28°C° 0.1 mm 2 mps 731 mmHg 31%
    18:00 +27°C° 0.1 mm 1 mps 731 mmHg 34%
    19:00 +25°C° 0.2 mm 1 mps 732 mmHg 37%
    20:00 +22°C° 0.2 mm 1 mps 732 mmHg 40%
    21:00 +19°C° 0.2 mm 1 mps 732 mmHg 43%
    22:00 +18°C° 0 mm 1 mps 732 mmHg 45%
    23:00 +18°C° 0 mm 1 mps 732 mmHg 47%

    2 June, Friday

    Time Temperature Precipitation Wind Pressure Humidity
    00:00 +16°C° 0 mm 1 mps 732 mmHg 49%
    01:00 +16°C° 0 mm 1 mps 732 mmHg 53%
    02:00 +15°C° 0 mm 1 mps 732 mmHg 58%
    03:00 +15°C° 0 mm 1 mps 732 mmHg 62%
    04:00 +16°C° 0 mm 1 mps 732 mmHg 58%
    05:00 +19°C° 0 mm 1 mps 733 mmHg 55%
    06:00 +20°C° 0 mm 2 mps 733 mmHg 51%
    07:00 +23°C° 0 mm 2 mps 733 mmHg 45%
    08:00 +25°C° 0 mm 2 mps 733 mmHg 39%
    09:00 +26°C° 0 mm 2 mps 734 mmHg 33%
    10:00 +27°C° 0 mm 2 mps 733 mmHg 31%
    11:00 +28°C° 0 mm 2 mps 733 mmHg 29%
    12:00 +29°C° 0 mm 2 mps 733 mmHg 28%
    13:00 +30°C° 0 mm 2 mps 733 mmHg 27%
    14:00 +30°C° 0 mm 2 mps 732 mmHg 27%
    15:00 +30°C° 0 mm 1 mps 732 mmHg 27%
    16:00 +29°C° 0 mm 1 mps 732 mmHg 30%
    17:00 +29°C° 0 mm 1 mps 732 mmHg 33%
    18:00 +28°C° 0 mm 1 mps 733 mmHg 36%
    19:00 +25°C° 0.1 mm 1 mps 733 mmHg 41%
    20:00 +21°C° 0.1 mm 2 mps 734 mmHg 46%
    21:00 +19°C° 0.1 mm 2 mps 734 mmHg 51%
    22:00 +19°C° 0.1 mm 1 mps 734 mmHg 55%
    23:00 +19°C° 0.1 mm 1 mps 735 mmHg 59%

    3 June, Saturday

    Time Temperature Precipitation Wind Pressure Humidity
    00:00 +18°C° 0.1 mm 1 mps 735 mmHg 63%
    01:00 +18°C° 0 mm 1 mps 735 mmHg 65%
    02:00 +18°C° 0 mm 1 mps 735 mmHg 68%
    03:00 +16°C° 0 mm 1 mps 735 mmHg 70%
    04:00 +19°C° 0 mm 1 mps 735 mmHg 67%
    05:00 +20°C° 0 mm 1 mps 736 mmHg 64%
    06:00 +21°C° 0 mm 1 mps 736 mmHg 61%
    07:00 +23°C° 0 mm 1 mps 736 mmHg 57%
    08:00 +24°C° 0 mm 1 mps 737 mmHg 52%
    09:00 +25°C° 0 mm 1 mps 737 mmHg 47%
    10:00 +26°C° 0 mm 2 mps 736 mmHg 46%
    11:00 +27°C° 0 mm 2 mps 736 mmHg 44%
    12:00 +28°C° 0 mm 2 mps 736 mmHg 42%
    13:00 +28°C° 0 mm 2 mps 736 mmHg 41%
    14:00 +28°C° 0 mm 2 mps 735 mmHg 41%
    15:00 +29°C° 0 mm 2 mps 735 mmHg 40%
    16:00 +28°C° 0 mm 3 mps 735 mmHg 43%
    17:00 +27°C° 0 mm 3 mps 735 mmHg 45%
    18:00 +27°C° 0 mm 3 mps 735 mmHg 48%
    19:00 +25°C° 0 mm 2 mps 735 mmHg 55%
    20:00 +21°C° 0 mm 2 mps 736 mmHg 61%
    21:00 +19°C° 0 mm 2 mps 736 mmHg 68%
    22:00 +19°C° 0 mm 2 mps 736 mmHg 70%
    23:00 +18°C° 0 mm 2 mps 736 mmHg 72%

    4 June, Sunday

    Time Temperature Precipitation Wind Pressure Humidity
    00:00 +18°C° 0 mm 2 mps 736 mmHg 74%
    01:00 +18°C° 0 mm 1 mps 736 mmHg 75%
    02:00 +16°C° 0 mm 1 mps 736 mmHg 77%
    03:00 +16°C° 0 mm 1 mps 736 mmHg 79%
    04:00 +16°C° 0 mm 0 mps 736 mmHg 73%
    05:00 +18°C° 0 mm 0 mps 737 mmHg 68%
    06:00 +20°C° 0 mm 0 mps 737 mmHg 63%
    07:00 +23°C° 0 mm 1 mps 738 mmHg 59%
    08:00 +24°C° 0 mm 1 mps 738 mmHg 56%
    09:00 +25°C° 0 mm 1 mps 738 mmHg 52%
    10:00 +26°C° 0 mm 2 mps 738 mmHg 49%
    11:00 +27°C° 0 mm 2 mps 738 mmHg 47%
    12:00 +28°C° 0 mm 2 mps 737 mmHg 44%
    13:00 +28°C° 0.1 mm 3 mps 737 mmHg 44%
    14:00 +29°C° 0.1 mm 3 mps 737 mmHg 43%
    15:00 +29°C° 0.1 mm 3 mps 737 mmHg 42%
    16:00 +28°C° 0 mm 3 mps 737 mmHg 43%
    17:00 +28°C° 0 mm 3 mps 737 mmHg 45%
    18:00 +27°C° 0 mm 3 mps 737 mmHg 46%
    19:00 +25°C° 0 mm 3 mps 737 mmHg 52%
    20:00 +22°C° 0 mm 3 mps 737 mmHg 57%
    21:00 +19°C° 0 mm 3 mps 738 mmHg 63%
    22:00 +18°C° 0 mm 3 mps 738 mmHg 66%
    23:00 +18°C° 0 mm 2 mps 738 mmHg 68%
    Show more